Zurück zum Katalog

THORAD AGENA D DEB

AktivLEO
NORAD 17658·DEBRIS·🇺🇸 United States

Gestartet Sep 30, 1969 von Vandenberg Space Force Base

Loading…

Nächste Überflüge (nächste 24 Stunden)

TLE

AktuellSource: Space-Track

Epoche: Sep 13, 2026, 20:09 UTC

1 17658U 69082KU  26256.83990142  .00000278  00000-0  22757-3 0  9992
2 17658  70.3561 282.3722 0055492 178.9678 355.5348 13.98153222583519

Verfolge THORAD AGENA D DEB in Echtzeit mit AllMySat

Download on the App Store